Muncie, IN

9:36 AM EDT on June 22, 2017 (GMT -0400)
Delaware County-Johnson

Weather History for KMIE - February, 2012

Change the Weather History Date:

Monday, February 20, 2012

  Actual Average Record
Temperature  
Mean Temperature 29 °F 31 °F  
Max Temperature 40 °F 39 °F 71 °F (2016)
Min Temperature 17 °F 23 °F -6 °F (2015)
Degree Days  
Heating Degree Days 36 34  
Month to date heating degree days 645 728  
Since 1 July heating degree days 3626 4121  
Cooling Degree Days 0 0  
Month to date cooling degree days 0 0  
Year to date cooling degree days 0 0  
Moisture  
Dew Point 20 °F    
Average Humidity 70    
Maximum Humidity 92    
Minimum Humidity 48    
Precipitation  
Precipitation 0.00 in 0.08 in 0.91 in (1971)
Month to date precipitation 0.77 1.66  
Year to date precipitation 3.14 3.89  
Sea Level Pressure  
Sea Level Pressure 30.24 in    
Wind  
Wind Speed 6 mph (ESE)    
Max Wind Speed 15 mph    
Max Gust Speed 20 mph    
Visibility 9 miles    
Events      
T = Trace of Precipitation, MM = Missing Value Source: NWS Daily Summary

Daily Weather History Graph

Daily Weather History Graph

Search for Another Location

Airport or City:

Trip Planner

Search our weather history database for the weather conditions in past years. The results will help you decide how hot, cold, wet, or windy it might be!

Date:

Astronomy

Feb. 20, 2012 Rise Set
Actual Time 7:28 AM EST 6:22 PM EST
Civil Twilight 7:01 AM EST 6:50 PM EST
Nautical Twilight 6:29 AM EST 7:21 PM EST
Astronomical Twilight 5:58 AM EST 7:53 PM EST
Moon 6:25 AM EST (2/20) 5:26 PM EST (2/20)
Length of Visible Light 11h 48m
Length of Day
10h 53m
Waning Crescent, 2% of the Moon is Illuminated
Feb 20
Waning Crescent
Feb 21
New
Feb 29
First Quarter
Mar 8
Full
Mar 14
Last Quarter

Hourly Weather History & Observations

Time (EST) Temp. Windchill Dew Point Humidity Pressure Visibility Wind Dir Wind Speed Gust Speed Precip Events Conditions
12:53 AM 21.9 °F - 18.0 °F 85% 30.23 in 10.0 mi Calm Calm - N/A   Clear
1:53 AM 21.0 °F 16.2 °F 16.0 °F 81% 30.23 in 10.0 mi ENE 3.5 mph - N/A   Clear
2:53 AM 21.9 °F 15.7 °F 17.1 °F 82% 30.22 in 10.0 mi ENE 4.6 mph - N/A   Clear
3:53 AM 21.9 °F - 16.0 °F 78% 30.23 in 10.0 mi Calm Calm - N/A   Clear
4:53 AM 19.9 °F 13.4 °F 16.0 °F 85% 30.25 in 9.0 mi NNE 4.6 mph - N/A   Clear
5:53 AM 19.0 °F 13.9 °F 15.1 °F 85% 30.27 in 8.0 mi ENE 3.5 mph - N/A   Clear
6:53 AM 19.9 °F - 15.1 °F 81% 30.32 in 7.0 mi Calm Calm - N/A   Clear
7:53 AM 19.0 °F - 15.1 °F 85% 30.34 in 6.0 mi Calm Calm - N/A   Clear
8:53 AM 24.1 °F - 19.0 °F 81% 30.35 in 7.0 mi Calm Calm - N/A   Clear
9:53 AM 28.0 °F 19.3 °F 21.0 °F 75% 30.35 in 10.0 mi ESE 9.2 mph - N/A   Clear
10:53 AM 30.0 °F 20.5 °F 21.0 °F 69% 30.35 in 10.0 mi East 11.5 mph - N/A   Clear
11:53 AM 32.0 °F 22.5 °F 23.0 °F 69% 30.32 in 10.0 mi East 12.7 mph - N/A   Clear
12:53 PM 35.1 °F 26.9 °F 24.1 °F 64% 30.30 in 10.0 mi ESE 11.5 mph - N/A   Clear
1:53 PM 37.0 °F 29.8 °F 23.0 °F 57% 30.28 in 10.0 mi SE 10.4 mph - N/A   Clear
2:53 PM 39.0 °F 34.8 °F 23.0 °F 53% 30.27 in 10.0 mi SE 5.8 mph - N/A   Clear
3:53 PM 39.9 °F 32.5 °F 24.1 °F 53% 30.23 in 10.0 mi ESE 12.7 mph - N/A   Clear
4:53 PM 39.9 °F 32.9 °F 23.0 °F 51% 30.21 in 10.0 mi SE 11.5 mph - N/A   Clear
6:53 PM 34.0 °F 28.0 °F 24.1 °F 67% 30.18 in 10.0 mi ESE 6.9 mph - N/A   Clear
7:53 PM 35.1 °F 28.6 °F 24.1 °F 64% 30.16 in 10.0 mi SE 8.1 mph - N/A   Clear
8:53 PM 35.1 °F 29.3 °F 21.9 °F 59% 30.14 in 10.0 mi SE 6.9 mph - N/A   Clear
9:53 PM 35.1 °F 28.6 °F 21.9 °F 59% 30.12 in 10.0 mi SE 8.1 mph - N/A   Clear
10:53 PM 35.1 °F 28.6 °F 21.9 °F 59% 30.07 in 10.0 mi SE 8.1 mph - N/A   Clear
11:53 PM 37.0 °F 30.4 °F 21.0 °F 52% 30.05 in 10.0 mi SSE 9.2 mph - N/A   Clear